TimeMDT,TemperatureF,Dew PointF,Humidity,Sea Level PressureIn,VisibilityMPH,Wind Direction,Wind SpeedMPH,Gust SpeedMPH,PrecipitationIn,Events,Conditions,WindDirDegrees,DateUTC
12:07 AM,53.6,48.2,82,29.68,10.0,Calm,Calm,-,N/A,,Mostly Cloudy,0,2014-05-07 06:07:00
12:53 AM,53.1,48.0,83,29.62,10.0,NE,8.1,-,N/A,,Overcast,50,2014-05-07 06:53:00
1:53 AM,52.0,48.0,86,29.61,10.0,NE,12.7,-,N/A,,Clear,40,2014-05-07 07:53:00
3:32 AM,51.8,48.2,88,29.67,9.0,NNE,11.5,-,N/A,,Mostly Cloudy,20,2014-05-07 09:32:00
3:53 AM,52.0,48.0,86,29.66,9.0,NNE,10.4,-,N/A,,Overcast,20,2014-05-07 09:53:00
4:31 AM,51.8,48.2,88,29.68,8.0,NNE,12.7,-,N/A,,Mostly Cloudy,20,2014-05-07 10:31:00
4:53 AM,52.0,48.9,89,29.66,8.0,NNE,11.5,-,N/A,,Overcast,20,2014-05-07 10:53:00
5:03 AM,51.8,48.2,88,29.69,8.0,NNE,12.7,-,N/A,,Overcast,20,2014-05-07 11:03:00
6:53 AM,51.1,46.9,86,29.71,10.0,Calm,Calm,-,N/A,,Overcast,0,2014-05-07 12:53:00
7:53 AM,54.0,48.9,83,29.71,8.0,NNE,3.5,-,N/A,,Scattered Clouds,30,2014-05-07 13:53:00
8:53 AM,55.9,48.9,77,29.73,9.0,NNW,8.1,-,N/A,,Overcast,340,2014-05-07 14:53:00
9:53 AM,55.0,48.0,77,29.74,10.0,NNW,8.1,-,N/A,,Overcast,340,2014-05-07 15:53:00
10:53 AM,54.0,48.0,80,29.76,10.0,North,12.7,-,N/A,,Overcast,10,2014-05-07 16:53:00
11:19 AM,53.6,48.2,82,29.77,8.0,NNE,13.8,-,N/A,,Overcast,20,2014-05-07 17:19:00
11:53 AM,53.1,48.0,83,29.78,6.0,NNE,11.5,-,N/A,,Haze,20,2014-05-07 17:53:00
12:08 PM,51.8,48.2,88,29.79,2.0,North,8.1,-,0.00,Rain,Light Rain,360,2014-05-07 18:08:00
12:26 PM,48.2,46.4,93,29.79,2.0,NW,5.8,16.1,0.00,Rain,Light Rain,310,2014-05-07 18:26:00
12:36 PM,48.2,46.4,93,29.79,1.5,NW,9.2,-,0.01,Rain,Light Rain,320,2014-05-07 18:36:00
12:53 PM,48.9,48.0,97,29.81,1.0,NNW,4.6,-,0.03,Rain,Light Rain,330,2014-05-07 18:53:00
1:20 PM,48.2,46.4,93,29.79,2.0,NNE,8.1,-,0.01,Rain,Light Rain,30,2014-05-07 19:20:00
1:24 PM,48.2,46.4,93,29.79,2.0,NNE,8.1,-,0.01,Rain,Light Rain,20,2014-05-07 19:24:00
1:48 PM,48.2,46.4,93,29.79,3.0,NNE,10.4,-,0.01,Rain,Light Rain,30,2014-05-07 19:48:00
1:53 PM,48.9,46.9,93,29.80,3.0,NNE,10.4,-,0.01,Rain,Light Rain,20,2014-05-07 19:53:00
2:17 PM,48.2,46.4,93,29.79,3.0,North,8.1,-,0.00,,Overcast,360,2014-05-07 20:17:00
2:46 PM,48.2,46.4,93,29.79,9.0,North,9.2,-,0.00,,Overcast,10,2014-05-07 20:46:00
2:53 PM,48.9,46.0,90,29.80,10.0,North,9.2,-,0.00,,Overcast,10,2014-05-07 20:53:00
3:33 PM,48.2,44.6,87,29.78,9.0,NNE,11.5,-,0.01,,Overcast,20,2014-05-07 21:33:00
3:42 PM,48.2,44.6,87,29.78,9.0,NNE,11.5,-,0.01,,Overcast,20,2014-05-07 21:42:00
3:53 PM,48.0,44.1,86,29.79,9.0,NNE,15.0,-,0.01,,Overcast,30,2014-05-07 21:53:00
4:53 PM,45.0,41.0,86,29.80,10.0,NNE,18.4,24.2,0.00,,Overcast,30,2014-05-07 22:53:00
5:33 PM,42.8,39.2,87,29.78,10.0,North,19.6,-,N/A,Thunderstorm,Overcast,10,2014-05-07 23:33:00
5:53 PM,43.0,39.0,86,29.86,3.0,NNE,10.4,-,0.04,Rain-Thunderstorm,Light Thunderstorms and Rain,30,2014-05-07 23:53:00
5:56 PM,42.8,39.2,87,29.83,1.8,NE,12.7,-,0.07,Rain-Thunderstorm,Heavy Thunderstorms and Rain,40,2014-05-07 23:56:00
6:09 PM,41.0,37.4,87,29.81,3.0,NNE,18.4,-,0.16,Rain-Thunderstorm,Light Thunderstorms and Rain,20,2014-05-08 00:09:00
6:29 PM,41.0,37.4,87,29.83,7.0,North,16.1,-,0.16,Rain-Thunderstorm,Light Rain,360,2014-05-08 00:29:00
6:49 PM,41.0,37.4,87,29.81,9.0,North,18.4,-,0.16,Rain,Light Rain,10,2014-05-08 00:49:00
6:53 PM,41.0,37.9,89,29.85,8.0,North,17.3,25.3,0.17,Rain,Light Rain,10,2014-05-08 00:53:00
6:56 PM,41.0,37.4,87,29.82,9.0,North,16.1,25.3,0.00,Rain,Light Rain,10,2014-05-08 00:56:00
7:00 PM,41.0,37.4,87,29.82,9.0,North,15.0,-,0.00,Rain-Thunderstorm,Light Rain,10,2014-05-08 01:00:00
7:33 PM,39.2,37.4,93,29.91,3.0,NNW,8.1,-,0.05,Rain,Heavy Rain,340,2014-05-08 01:33:00
7:40 PM,37.4,35.6,93,29.92,2.0,North,5.8,-,0.11,Rain,Heavy Rain,350,2014-05-08 01:40:00
7:48 PM,37.4,35.6,93,29.92,2.0,North,9.2,-,0.17,Rain,Heavy Rain,10,2014-05-08 01:48:00
7:53 PM,37.0,35.1,93,29.96,2.0,NNE,9.2,-,0.20,Rain,Heavy Rain,30,2014-05-08 01:53:00
8:08 PM,37.4,35.6,93,29.92,4.0,NNE,6.9,-,0.05,Rain,Rain,30,2014-05-08 02:08:00
8:18 PM,37.4,35.6,93,29.91,2.5,NE,11.5,-,0.11,Rain,Heavy Rain,50,2014-05-08 02:18:00
8:37 PM,37.4,35.6,93,29.88,3.0,NE,15.0,23.0,0.19,Rain,Rain,40,2014-05-08 02:37:00
8:53 PM,37.0,36.0,96,29.89,5.0,ENE,17.3,-,0.23,Rain,Rain,70,2014-05-08 02:53:00
9:00 PM,37.4,35.6,93,29.86,4.0,ENE,13.8,-,0.01,Rain,Rain,60,2014-05-08 03:00:00
9:09 PM,37.4,35.6,93,29.87,5.0,ENE,13.8,23.0,0.02,Rain,Light Rain,60,2014-05-08 03:09:00
9:16 PM,37.4,35.6,93,29.86,8.0,ENE,17.3,-,0.03,Rain,Light Rain,60,2014-05-08 03:16:00
9:53 PM,36.0,35.1,97,29.88,10.0,NE,17.3,27.6,0.04,,Overcast,40,2014-05-08 03:53:00
10:53 PM,36.0,34.0,93,29.87,10.0,North,17.3,26.5,N/A,,Overcast,10,2014-05-08 04:53:00
11:53 PM,36.0,35.1,97,29.91,10.0,North,16.1,-,N/A,,Overcast,10,2014-05-08 05:53:00